STARLINK-67 (44278 NORAD) Tracking and Keplerian Element Data

This shows tracking and keplerian element data for the satellite.

Feedback or suggestion? Click here.




ElementValue
Catalog44278
NameSTARLINK-67
Epoch Orbit5853
Epoch Day148.37496501
Epoch Year2020
RAAN113.8189
Inclination52.9725
Eccentricity0.0005497
Argument of Perigee260.1827
Mean Anonmoly100.3413
Mean Motion16.44125369
Decay Rate0.35214307
L11 44278U 19029AV 20148.37496501 .35214307 12466-4 12490-2 0 9992
L22 44278 52.9725 113.8189 0005497 260.1827 100.3413 16.44125369 58533



Live tracking and technical data element details for STARLINK-67 (NORAD 44278). STARLINK-67 can be tracked NOW for your location showing map with azimuth and elevation plus other details from your city location.







IsCatalogInMostPopularTable: catalog: 44278, numindb: 351
Update: records affected: 1



GetName: 44278 STARLINK-67

Hit Count: updated at: Mon, 28 Nov 2022 04:59:35 GMT